Provincetown, MA

5:10 AM EDT on May 23, 2017 (GMT -0400)
Provincetown Municipal

Weather History for KPVC - January, 2014

Change the Weather History Date:

Sunday, January 19, 2014

  Actual Average Record
Temperature  
Mean Temperature 32 °F -  
Max Temperature 35 °F 32 °F 48 °F (1999)
Min Temperature 30 °F 22 °F 6 °F (1997)
Degree Days  
Heating Degree Days 32    
Moisture  
Dew Point 26 °F    
Average Humidity 74    
Maximum Humidity 100    
Minimum Humidity 56    
Precipitation  
Precipitation 0.14 in - - ()
Sea Level Pressure  
Sea Level Pressure 29.65 in    
Wind  
Wind Speed 17 mph (WSW)    
Max Wind Speed 30 mph    
Max Gust Speed 40 mph    
Visibility 10 miles    
Events      
Averages and records for this station are not official NWS values.
T = Trace of Precipitation, MM = Missing Value Source: NWS Daily Summary

Daily Weather History Graph

Daily Weather History Graph

Search for Another Location

Airport or City:

Trip Planner

Search our weather history database for the weather conditions in past years. The results will help you decide how hot, cold, wet, or windy it might be!

Date:

Astronomy

Jan. 19, 2014 Rise Set
Actual Time 7:04 AM EST 4:39 PM EST
Civil Twilight 6:33 AM EST 5:09 PM EST
Nautical Twilight 5:59 AM EST 5:44 PM EST
Astronomical Twilight 5:26 AM EST 6:17 PM EST
Moon 8:18 PM EST (1/19) 8:28 AM EST (1/19)
Length of Visible Light 10h 35m
Length of Day
9h 34m
Waning Gibbous, 89% of the Moon is Illuminated
Jan 19
Waning Gibbous
Jan 24
Last Quarter
Jan 30
New
Feb 6
First Quarter
Feb 14
Full

Hourly Weather History & Observations

Time (EST) Temp. Windchill Dew Point Humidity Pressure Visibility Wind Dir Wind Speed Gust Speed Precip Events Conditions
12:15 AM 35.6 °F 25.5 °F 35.6 °F 100% 29.67 in 9.0 mi NW 17.3 mph 21.9 mph N/A   Overcast
12:35 AM 35.6 °F 25.9 °F 33.8 °F 93% 29.67 in 5.0 mi NW 16.1 mph - N/A   Overcast
12:55 AM 35.6 °F 26.6 °F 33.8 °F 93% 29.68 in 7.0 mi WNW 13.8 mph 20.7 mph N/A   Overcast
1:15 AM 35.6 °F 27.1 °F 33.8 °F 93% 29.69 in 7.0 mi WNW 12.7 mph - N/A   Overcast
1:35 AM 35.6 °F 27.1 °F 32.0 °F 87% 29.70 in 10.0 mi WNW 12.7 mph 18.4 mph N/A   Overcast
1:55 AM 35.6 °F 26.6 °F 32.0 °F 87% 29.71 in 9.0 mi West 13.8 mph 19.6 mph N/A   Overcast
2:15 AM 33.8 °F 23.9 °F 32.0 °F 93% 29.70 in 5.0 mi WNW 15.0 mph 20.7 mph N/A   Overcast
2:35 AM 33.8 °F 23.9 °F 32.0 °F 93% 29.71 in 6.0 mi WNW 15.0 mph 18.4 mph N/A   Overcast
2:55 AM 33.8 °F 24.8 °F 32.0 °F 93% 29.71 in 8.0 mi WNW 12.7 mph 17.3 mph N/A   Overcast
3:15 AM 33.8 °F 25.3 °F 32.0 °F 93% 29.71 in 10.0 mi West 11.5 mph - N/A   Overcast
3:35 AM 33.8 °F 27.0 °F 32.0 °F 93% 29.71 in 10.0 mi NW 8.1 mph - N/A   Overcast
3:55 AM 33.8 °F 27.0 °F 32.0 °F 93% 29.71 in 10.0 mi West 8.1 mph - N/A   Overcast
4:15 AM 33.8 °F 27.0 °F 30.2 °F 87% 29.71 in 10.0 mi West 8.1 mph - N/A   Overcast
4:35 AM 33.8 °F 27.0 °F 30.2 °F 87% 29.71 in 10.0 mi West 8.1 mph - N/A   Overcast
4:55 AM 33.8 °F 27.0 °F 30.2 °F 87% 29.71 in 10.0 mi West 8.1 mph - N/A   Overcast
5:15 AM 33.8 °F 26.4 °F 30.2 °F 87% 29.72 in 10.0 mi West 9.2 mph - N/A   Overcast
5:35 AM 33.8 °F 26.4 °F 30.2 °F 87% 29.71 in 10.0 mi WSW 9.2 mph - N/A   Overcast
5:55 AM 33.8 °F 25.8 °F 30.2 °F 87% 29.71 in 10.0 mi WSW 10.4 mph 16.1 mph N/A   Overcast
6:15 AM 33.8 °F 24.3 °F 30.2 °F 87% 29.72 in 10.0 mi WSW 13.8 mph 17.3 mph N/A   Overcast
6:35 AM 33.8 °F 25.3 °F 30.2 °F 87% 29.71 in 10.0 mi West 11.5 mph - N/A   Overcast
6:55 AM 33.8 °F 27.0 °F 30.2 °F 87% 29.71 in 10.0 mi WSW 8.1 mph - N/A   Mostly Cloudy
7:15 AM 33.8 °F 24.8 °F 30.2 °F 87% 29.72 in 10.0 mi WSW 12.7 mph - N/A   Overcast
7:35 AM 33.8 °F 24.3 °F 30.2 °F 87% 29.72 in 10.0 mi SW 13.8 mph - N/A   Overcast
7:55 AM 33.8 °F 23.9 °F 30.2 °F 87% 29.72 in 10.0 mi SW 15.0 mph 19.6 mph N/A   Overcast
8:15 AM 33.8 °F 23.5 °F 28.4 °F 81% 29.71 in 10.0 mi SW 16.1 mph 21.9 mph N/A   Overcast
8:35 AM 33.8 °F 23.2 °F 30.2 °F 87% 29.72 in 10.0 mi SW 17.3 mph 20.7 mph N/A   Overcast
8:55 AM 32.0 °F 20.5 °F 26.6 °F 80% 29.72 in 10.0 mi WSW 18.4 mph - N/A   Overcast
9:15 AM 32.0 °F 21.2 °F 26.6 °F 80% 29.71 in 10.0 mi SW 16.1 mph 24.2 mph N/A   Overcast
9:35 AM 32.0 °F 19.8 °F 26.6 °F 80% 29.71 in 10.0 mi SW 20.7 mph 26.5 mph N/A   Mostly Cloudy
9:55 AM 32.0 °F 19.8 °F 26.6 °F 80% 29.70 in 10.0 mi WSW 20.7 mph 27.6 mph N/A   Mostly Cloudy
10:15 AM 30.2 °F 16.5 °F 26.6 °F 86% 29.70 in 5.0 mi WSW 24.2 mph 31.1 mph N/A   Mostly Cloudy
10:35 AM 32.0 °F 19.8 °F 26.6 °F 80% 29.69 in 10.0 mi SW 20.7 mph 28.8 mph N/A   Overcast
10:55 AM 33.8 °F 22.5 °F 26.6 °F 75% 29.68 in 10.0 mi SW 19.6 mph 29.9 mph N/A   Scattered Clouds
11:15 AM 33.8 °F 20.5 °F 26.6 °F 75% 29.66 in 10.0 mi WSW 27.6 mph 31.1 mph N/A   Mostly Cloudy
11:35 AM 33.8 °F 21.0 °F 24.8 °F 70% 29.65 in 10.0 mi WSW 25.3 mph 35.7 mph N/A   Overcast
11:55 AM 33.8 °F 22.2 °F 24.8 °F 70% 29.64 in 10.0 mi WSW 20.7 mph 32.2 mph N/A   Overcast
12:15 PM 33.8 °F 21.6 °F 24.8 °F 70% 29.63 in 10.0 mi WSW 23.0 mph 31.1 mph 0.01 in   Overcast
12:35 PM 33.8 °F 22.2 °F 23.0 °F 65% 29.62 in 10.0 mi WSW 20.7 mph 28.8 mph 0.01 in   Overcast
12:55 PM 33.8 °F 21.9 °F 23.0 °F 65% 29.62 in 10.0 mi WSW 21.9 mph 31.1 mph 0.03 in   Mostly Cloudy
1:15 PM 35.6 °F 24.5 °F 24.8 °F 65% 29.61 in 10.0 mi WSW 20.7 mph 31.1 mph 0.01 in   Mostly Cloudy
1:35 PM 33.8 °F 21.0 °F 21.2 °F 60% 29.59 in 10.0 mi WSW 25.3 mph 34.5 mph 0.01 in   Partly Cloudy
1:55 PM 35.6 °F 24.0 °F 24.8 °F 65% 29.59 in 10.0 mi WSW 23.0 mph 28.8 mph 0.01 in   Clear
2:15 PM 35.6 °F 24.0 °F 23.0 °F 60% 29.59 in 10.0 mi WSW 23.0 mph 29.9 mph N/A   Clear
2:35 PM 35.6 °F 23.4 °F 21.2 °F 56% 29.59 in 10.0 mi WSW 25.3 mph 31.1 mph N/A   Clear
2:55 PM 35.6 °F 24.0 °F 23.0 °F 60% 29.59 in 10.0 mi WSW 23.0 mph 31.1 mph 0.01 in   Clear
3:15 PM 35.6 °F 23.7 °F 23.0 °F 60% 29.59 in 10.0 mi WSW 24.2 mph 29.9 mph N/A   Clear
3:35 PM 35.6 °F 25.2 °F 23.0 °F 60% 29.59 in 10.0 mi WSW 18.4 mph 26.5 mph N/A   Clear
3:55 PM 35.6 °F 24.8 °F 24.8 °F 65% 29.59 in 10.0 mi SW 19.6 mph 23.0 mph 0.01 in   Partly Cloudy
4:15 PM 35.6 °F 22.5 °F 23.0 °F 60% 29.59 in 10.0 mi WSW 29.9 mph 40.3 mph N/A   Partly Cloudy
4:35 PM 33.8 °F 20.5 °F 21.2 °F 60% 29.59 in 10.0 mi SW 27.6 mph 36.8 mph N/A   Partly Cloudy
4:55 PM 33.8 °F 21.3 °F 24.8 °F 70% 29.58 in 10.0 mi SW 24.2 mph 28.8 mph N/A   Partly Cloudy
5:15 PM 33.8 °F 21.9 °F 24.8 °F 70% 29.58 in 10.0 mi WSW 21.9 mph 29.9 mph N/A   Clear
5:35 PM 33.8 °F 22.2 °F 24.8 °F 70% 29.59 in 10.0 mi SW 20.7 mph 28.8 mph 0.01 in   Clear
5:55 PM 33.8 °F 21.0 °F 23.0 °F 65% 29.59 in 10.0 mi WSW 25.3 mph 28.8 mph 0.01 in   Clear
6:15 PM 33.8 °F 20.8 °F 23.0 °F 65% 29.59 in 10.0 mi WSW 26.5 mph 31.1 mph N/A   Clear
6:35 PM 33.8 °F 21.3 °F 21.2 °F 60% 29.59 in 10.0 mi WSW 24.2 mph 31.1 mph N/A   Clear
6:55 PM 33.8 °F 21.3 °F 21.2 °F 60% 29.60 in 10.0 mi WSW 24.2 mph 31.1 mph N/A   Clear
7:15 PM 33.8 °F 20.8 °F 23.0 °F 65% 29.60 in 10.0 mi WSW 26.5 mph 34.5 mph 0.01 in   Clear
7:35 PM 33.8 °F 20.1 °F 21.2 °F 60% 29.60 in 10.0 mi WSW 29.9 mph 36.8 mph 0.01 in   Clear
7:55 PM 33.8 °F 20.5 °F 21.2 °F 60% 29.60 in 10.0 mi WSW 27.6 mph 36.8 mph 0.01 in   Scattered Clouds
8:15 PM 33.8 °F 21.6 °F 21.2 °F 60% 29.60 in 10.0 mi WSW 23.0 mph 33.4 mph 0.03 in   Mostly Cloudy
8:35 PM 33.8 °F 20.5 °F 23.0 °F 65% 29.61 in 10.0 mi WSW 27.6 mph 36.8 mph 0.03 in   Overcast
8:55 PM 35.6 °F 23.2 °F 23.0 °F 60% 29.61 in 10.0 mi WSW 26.5 mph 33.4 mph 0.03 in   Overcast
9:15 PM 33.8 °F 21.0 °F 21.2 °F 60% 29.62 in 10.0 mi WSW 25.3 mph 35.7 mph 0.01 in   Mostly Cloudy
9:35 PM 33.8 °F 21.0 °F 21.2 °F 60% 29.62 in 10.0 mi WSW 25.3 mph 36.8 mph 0.01 in   Scattered Clouds
9:55 PM 33.8 °F 20.5 °F 21.2 °F 60% 29.62 in 10.0 mi WSW 27.6 mph 35.7 mph 0.01 in   Mostly Cloudy
10:15 PM 33.8 °F 20.8 °F 21.2 °F 60% 29.62 in 10.0 mi WSW 26.5 mph 33.4 mph 0.01 in   Mostly Cloudy
10:35 PM 33.8 °F 21.6 °F 21.2 °F 60% 29.62 in 10.0 mi WSW 23.0 mph 33.4 mph 0.01 in   Scattered Clouds
10:55 PM 33.8 °F 21.0 °F 21.2 °F 60% 29.62 in 10.0 mi WSW 25.3 mph 33.4 mph 0.02 in   Clear
11:15 PM 33.8 °F 21.6 °F 21.2 °F 60% 29.61 in 10.0 mi WSW 23.0 mph 33.4 mph N/A   Clear
11:35 PM 33.8 °F 22.8 °F 19.4 °F 56% 29.61 in 10.0 mi WSW 18.4 mph 29.9 mph N/A   Clear
11:55 PM 33.8 °F 23.2 °F 21.2 °F 60% 29.60 in 10.0 mi WSW 17.3 mph 25.3 mph N/A   Clear